Location: Cahas Mountain Overlook
(37.0833°N, 80.1000°W)
Time: 10:48:38
(UTC-04:00)

A-11 Canister half - Pass Details

Date: 13 February 2026
Orbit: 1524 x 1683 km, 47.3° (Epoch: 16 March)

Event Time Altitude Azimuth Distance (km) Brightness Sun altitude
Rises 21:53:25 0° 294° (WNW) 4,673 12.3 -46.8°
Reaches altitude 10° 21:56:36 10° 300° (WNW) 3,691 11.5 -47.4°
Enters shadow 22:01:59 35° 323° (NW) 2,266 10.0 -48.4°
